Time,TemperatureF,DewpointF,PressureIn,WindDirection,WindDirectionDegrees,WindSpeedMPH,WindSpeedGustMPH,Humidity,HourlyPrecipIn,Conditions,Clouds,dailyrainin,SoftwareType,DateUTC
2015-06-03 00:02:00,51.0,6.0,-100.00,WSW,244,3.0,7.0,16,-99.99,,,-99.99,,2015-06-03 07:02:00,
2015-06-03 01:43:00,47.0,8.0,-100.00,WSW,246,4.0,7.0,20,-99.99,,,-99.99,,2015-06-03 08:43:00,
2015-06-03 01:52:00,47.0,8.0,-100.00,WSW,246,4.0,7.0,20,-99.99,,,-99.99,,2015-06-03 08:52:00,
2015-06-03 02:02:00,47.0,8.0,-100.00,WSW,246,4.0,7.0,20,-99.99,,,-99.99,,2015-06-03 09:02:00,
2015-06-03 02:43:00,46.0,7.0,-100.00,WSW,250,3.0,6.0,20,-99.99,,,-99.99,,2015-06-03 09:43:00,
2015-06-03 02:52:00,46.0,7.0,-100.00,WSW,250,3.0,6.0,20,-99.99,,,-99.99,,2015-06-03 09:52:00,
2015-06-03 03:03:00,46.0,7.0,-100.00,WSW,250,3.0,6.0,20,-99.99,,,-99.99,,2015-06-03 10:03:00,
2015-06-03 03:42:00,46.0,9.0,-100.00,WSW,246,4.0,9.0,22,-99.99,,,-99.99,,2015-06-03 10:42:00,
2015-06-03 03:52:00,46.0,9.0,-100.00,WSW,246,4.0,9.0,22,-99.99,,,-99.99,,2015-06-03 10:52:00,
2015-06-03 04:03:00,46.0,9.0,-100.00,WSW,246,4.0,9.0,22,-99.99,,,-99.99,,2015-06-03 11:03:00,
2015-06-03 04:32:00,43.0,10.0,-100.00,WSW,253,3.0,6.0,25,-99.99,,,-99.99,,2015-06-03 11:32:00,
2015-06-03 04:42:00,43.0,10.0,-100.00,WSW,253,3.0,6.0,25,-99.99,,,-99.99,,2015-06-03 11:42:00,
2015-06-03 04:52:00,43.0,10.0,-100.00,WSW,253,3.0,6.0,25,-99.99,,,-99.99,,2015-06-03 11:52:00,
2015-06-03 05:03:00,43.0,10.0,-100.00,WSW,253,3.0,6.0,25,-99.99,,,-99.99,,2015-06-03 12:03:00,
2015-06-03 06:42:00,42.0,14.0,-100.00,WSW,248,4.0,8.0,32,-99.99,,,-99.99,,2015-06-03 13:42:00,
2015-06-03 06:51:00,42.0,14.0,-100.00,WSW,248,4.0,8.0,32,-99.99,,,-99.99,,2015-06-03 13:51:00,
2015-06-03 07:02:00,42.0,14.0,-100.00,WSW,248,4.0,8.0,32,-99.99,,,-99.99,,2015-06-03 14:02:00,
2015-06-03 07:42:00,50.0,18.0,-100.00,WSW,244,5.0,11.0,28,-99.99,,,-99.99,,2015-06-03 14:42:00,
2015-06-03 07:52:00,50.0,18.0,-100.00,WSW,244,5.0,11.0,28,-99.99,,,-99.99,,2015-06-03 14:52:00,
2015-06-03 08:03:00,50.0,18.0,-100.00,WSW,244,5.0,11.0,28,-99.99,,,-99.99,,2015-06-03 15:03:00,
2015-06-03 08:43:00,54.0,19.0,-100.00,WSW,246,8.0,16.0,25,-99.99,,,-99.99,,2015-06-03 15:43:00,
2015-06-03 08:52:00,54.0,19.0,-100.00,WSW,246,8.0,16.0,25,-99.99,,,-99.99,,2015-06-03 15:52:00,
2015-06-03 09:01:00,54.0,19.0,-100.00,WSW,246,8.0,16.0,25,-99.99,,,-99.99,,2015-06-03 16:01:00,